When you browse on this site, cookies collect data to enhance your experience and personalize the content and advertising you see.
Visit our Privacy Policy to learn more. By continuing to use the site, you agree to this use of cookies and data.
  • In Österreich
  • Länderverzeichnis
  • Für 7 Tage
  • Wassertemperatur
  • Satellitenkarten
  • Wetterkarte
  • News
  • Widgets
  • user-avatar
    Anmelden

    Stündliche Wetter Poluyanovo

    Heute, 18 Februar, Montag

    Zeit Temperatur Niederschläge Wind Luftdruck Luftfeuchtigkeit
    00:00 -5°C° 0 mm 4 m/S 748 mmHg 78%
    01:00 -5°C° 0 mm 4 m/S 749 mmHg 78%
    02:00 -6°C° 0 mm 3 m/S 750 mmHg 79%
    03:00 -6°C° 0 mm 3 m/S 750 mmHg 81%
    04:00 -6°C° 0 mm 3 m/S 751 mmHg 82%
    05:00 -7°C° 0 mm 3 m/S 751 mmHg 83%
    06:00 -6°C° 0 mm 2 m/S 752 mmHg 84%
    07:00 -6°C° 0 mm 2 m/S 752 mmHg 85%
    08:00 -6°C° 0 mm 2 m/S 753 mmHg 86%
    09:00 -5°C° 0 mm 2 m/S 753 mmHg 82%
    10:00 -5°C° 0 mm 2 m/S 754 mmHg 78%
    11:00 -4°C° 0 mm 2 m/S 754 mmHg 74%
    12:00 -2°C° 0 mm 1 m/S 754 mmHg 70%
    13:00 -1°C° 0 mm 1 m/S 754 mmHg 67%
    14:00 0°C° 0 mm 1 m/S 754 mmHg 63%
    15:00 -1°C° 0 mm 1 m/S 754 mmHg 67%
    16:00 -2°C° 0 mm 1 m/S 754 mmHg 71%
    17:00 -3°C° 0 mm 1 m/S 754 mmHg 75%
    18:00 -3°C° 0 mm 1 m/S 754 mmHg 76%
    19:00 -3°C° 0 mm 1 m/S 754 mmHg 77%
    20:00 -5°C° 0 mm 2 m/S 753 mmHg 79%
    21:00 -5°C° 0 mm 2 m/S 753 mmHg 77%
    22:00 -6°C° 0 mm 3 m/S 753 mmHg 76%
    23:00 -6°C° 0 mm 3 m/S 752 mmHg 75%

    Morgen, 19 Februar, Dienstag

    Zeit Temperatur Niederschläge Wind Luftdruck Luftfeuchtigkeit
    00:00 -6°C° 0 mm 3 m/S 752 mmHg 74%
    01:00 -7°C° 0 mm 4 m/S 752 mmHg 72%
    02:00 -5°C° 0 mm 4 m/S 751 mmHg 71%
    03:00 -5°C° 0 mm 4 m/S 751 mmHg 71%
    04:00 -5°C° 0 mm 4 m/S 750 mmHg 70%
    05:00 -6°C° 0 mm 5 m/S 749 mmHg 70%
    06:00 -6°C° 0 mm 5 m/S 749 mmHg 73%
    07:00 -5°C° 0 mm 5 m/S 748 mmHg 76%
    08:00 -5°C° 0 mm 5 m/S 748 mmHg 79%
    09:00 -4°C° 0 mm 5 m/S 748 mmHg 78%
    10:00 -2°C° 0 mm 5 m/S 747 mmHg 76%
    11:00 -1°C° 0 mm 5 m/S 747 mmHg 74%
    12:00 0°C° 0 mm 5 m/S 746 mmHg 74%
    13:00 0°C° 0 mm 5 m/S 745 mmHg 74%
    14:00 0°C° 0 mm 5 m/S 745 mmHg 73%
    15:00 0°C° 0 mm 5 m/S 744 mmHg 76%
    16:00 -1°C° 0 mm 5 m/S 744 mmHg 78%
    17:00 -1°C° 0 mm 5 m/S 743 mmHg 81%
    18:00 -1°C° 0 mm 5 m/S 742 mmHg 83%
    19:00 -1°C° 0 mm 5 m/S 742 mmHg 85%
    20:00 -2°C° 0 mm 5 m/S 741 mmHg 87%
    21:00 -1°C° 0 mm 5 m/S 741 mmHg 88%
    22:00 -1°C° 0 mm 5 m/S 740 mmHg 88%
    23:00 -1°C° 0 mm 5 m/S 740 mmHg 89%

    übermorgen, 20 Februar, Mittwoch

    Zeit Temperatur Niederschläge Wind Luftdruck Luftfeuchtigkeit
    00:00 0°C° 0 mm 5 m/S 739 mmHg 89%
    01:00 0°C° 0 mm 5 m/S 738 mmHg 89%
    02:00 0°C° 0 mm 5 m/S 738 mmHg 90%
    03:00 0°C° 0.4 mm 5 m/S 737 mmHg 89%
    04:00 0°C° 0.4 mm 5 m/S 737 mmHg 89%
    05:00 0°C° 0.4 mm 5 m/S 736 mmHg 89%
    06:00 0°C° 0.2 mm 5 m/S 737 mmHg 90%
    07:00 0°C° 0.2 mm 4 m/S 737 mmHg 91%
    08:00 0°C° 0.2 mm 4 m/S 737 mmHg 92%
    09:00 +1°C° 0.1 mm 4 m/S 737 mmHg 87%
    10:00 +1°C° 0.1 mm 5 m/S 737 mmHg 83%
    11:00 +1°C° 0.1 mm 5 m/S 737 mmHg 79%
    12:00 +1°C° 0.2 mm 5 m/S 736 mmHg 81%
    13:00 +1°C° 0.2 mm 5 m/S 736 mmHg 82%
    14:00 +1°C° 0.2 mm 5 m/S 736 mmHg 84%
    15:00 +1°C° 0.3 mm 5 m/S 736 mmHg 84%
    16:00 0°C° 0.3 mm 5 m/S 735 mmHg 84%
    17:00 0°C° 0.3 mm 5 m/S 735 mmHg 84%
    18:00 -1°C° 0.1 mm 5 m/S 736 mmHg 80%
    19:00 -1°C° 0.1 mm 5 m/S 736 mmHg 77%
    20:00 -2°C° 0.1 mm 5 m/S 736 mmHg 73%
    21:00 -4°C° 0.1 mm 5 m/S 736 mmHg 75%
    22:00 -4°C° 0.1 mm 5 m/S 736 mmHg 78%
    23:00 -5°C° 0.1 mm 5 m/S 737 mmHg 80%

    21 Februar, Donnerstag

    Zeit Temperatur Niederschläge Wind Luftdruck Luftfeuchtigkeit
    00:00 -5°C° 0.2 mm 5 m/S 737 mmHg 80%
    01:00 -5°C° 0.2 mm 6 m/S 737 mmHg 80%
    02:00 -5°C° 0.2 mm 6 m/S 737 mmHg 80%
    03:00 -5°C° 0.3 mm 6 m/S 737 mmHg 80%
    04:00 -5°C° 0.3 mm 6 m/S 738 mmHg 80%
    05:00 -6°C° 0.3 mm 6 m/S 738 mmHg 80%
    06:00 -6°C° 0.2 mm 6 m/S 738 mmHg 77%
    07:00 -6°C° 0.2 mm 6 m/S 739 mmHg 74%
    08:00 -8°C° 0.2 mm 7 m/S 740 mmHg 71%
    09:00 -8°C° 0.1 mm 7 m/S 741 mmHg 71%
    10:00 -8°C° 0.1 mm 7 m/S 742 mmHg 71%
    11:00 -8°C° 0.1 mm 7 m/S 743 mmHg 71%
    12:00 -8°C° 0.1 mm 7 m/S 744 mmHg 70%
    13:00 -8°C° 0.1 mm 7 m/S 745 mmHg 70%
    14:00 -8°C° 0.1 mm 7 m/S 746 mmHg 69%
    15:00 -8°C° 0.1 mm 6 m/S 746 mmHg 70%
    16:00 -9°C° 0.1 mm 6 m/S 747 mmHg 71%
    17:00 -9°C° 0.1 mm 6 m/S 748 mmHg 71%
    18:00 -10°C° 0 mm 6 m/S 749 mmHg 71%
    19:00 -10°C° 0 mm 6 m/S 750 mmHg 70%
    20:00 -10°C° 0 mm 6 m/S 751 mmHg 70%
    21:00 -11°C° 0 mm 5 m/S 752 mmHg 70%
    22:00 -11°C° 0 mm 5 m/S 752 mmHg 70%
    23:00 -11°C° 0 mm 5 m/S 753 mmHg 71%

    22 Februar, Freitag

    Zeit Temperatur Niederschläge Wind Luftdruck Luftfeuchtigkeit
    00:00 -12°C° 0 mm 5 m/S 753 mmHg 71%
    01:00 -12°C° 0 mm 5 m/S 754 mmHg 72%
    02:00 -12°C° 0 mm 5 m/S 755 mmHg 73%
    03:00 -13°C° 0 mm 5 m/S 755 mmHg 74%
    04:00 -13°C° 0 mm 5 m/S 756 mmHg 74%
    05:00 -13°C° 0 mm 5 m/S 757 mmHg 75%
    06:00 -12°C° 0 mm 4 m/S 758 mmHg 73%
    07:00 -12°C° 0 mm 4 m/S 758 mmHg 72%
    08:00 -12°C° 0 mm 4 m/S 759 mmHg 70%
    09:00 -11°C° 0 mm 4 m/S 760 mmHg 67%
    10:00 -9°C° 0 mm 3 m/S 761 mmHg 64%
    11:00 -8°C° 0 mm 3 m/S 761 mmHg 61%
    12:00 -7°C° 0 mm 3 m/S 761 mmHg 60%
    13:00 -7°C° 0 mm 3 m/S 762 mmHg 59%
    14:00 -6°C° 0 mm 3 m/S 762 mmHg 58%
    15:00 -7°C° 0 mm 3 m/S 762 mmHg 62%
    16:00 -7°C° 0 mm 3 m/S 762 mmHg 67%
    17:00 -7°C° 0 mm 2 m/S 763 mmHg 71%
    18:00 -7°C° 0 mm 2 m/S 763 mmHg 74%
    19:00 -8°C° 0 mm 2 m/S 763 mmHg 77%
    20:00 -8°C° 0 mm 2 m/S 764 mmHg 81%
    21:00 -8°C° 0 mm 2 m/S 763 mmHg 81%
    22:00 -8°C° 0 mm 2 m/S 763 mmHg 81%
    23:00 -9°C° 0 mm 2 m/S 763 mmHg 81%

    23 Februar, Samstag

    Zeit Temperatur Niederschläge Wind Luftdruck Luftfeuchtigkeit
    00:00 -8°C° 0 mm 1 m/S 763 mmHg 80%
    01:00 -8°C° 0 mm 1 m/S 763 mmHg 79%
    02:00 -8°C° 0 mm 1 m/S 762 mmHg 79%
    03:00 -8°C° 0 mm 2 m/S 761 mmHg 76%
    04:00 -8°C° 0 mm 2 m/S 761 mmHg 73%
    05:00 -7°C° 0 mm 2 m/S 760 mmHg 70%
    06:00 -7°C° 0.5 mm 2 m/S 759 mmHg 78%
    07:00 -8°C° 0.5 mm 3 m/S 759 mmHg 86%
    08:00 -8°C° 0.5 mm 3 m/S 758 mmHg 94%
    09:00 -8°C° 1 mm 3 m/S 757 mmHg 94%
    10:00 -7°C° 1 mm 3 m/S 757 mmHg 94%
    11:00 -7°C° 1 mm 3 m/S 756 mmHg 93%
    12:00 -6°C° 0.2 mm 3 m/S 756 mmHg 93%
    13:00 -5°C° 0.2 mm 3 m/S 755 mmHg 92%
    14:00 -5°C° 0.2 mm 3 m/S 754 mmHg 91%
    15:00 -4°C° 0.1 mm 3 m/S 754 mmHg 92%
    16:00 -2°C° 0.1 mm 2 m/S 754 mmHg 93%
    17:00 -2°C° 0.1 mm 2 m/S 754 mmHg 94%
    18:00 -2°C° 0.1 mm 2 m/S 754 mmHg 95%
    19:00 -1°C° 0.1 mm 2 m/S 755 mmHg 96%
    20:00 -1°C° 0.1 mm 2 m/S 755 mmHg 97%
    21:00 -1°C° 0 mm 2 m/S 755 mmHg 97%
    22:00 -1°C° 0 mm 2 m/S 755 mmHg 97%
    23:00 +1°C° 0 mm 1 m/S 755 mmHg 98%
    Mehr zeigen